sat.trackr.live / text

‹ back to catalog

YAOGAN-39 01C

NORAD 57731 · 2023-130E

PAYLOAD ACTIVE UNKNOWN

§ Identity

Operator
Country
PRC
Launch date
2023-08-31
Launch site
XICLF
Launch vehicle
Mass (kg)
RCS (m²)

External: N2YO · Heavens-Above · Gunter

§ Orbital elements

Epoch: 2026-05-25T03:21:40.667328Z

Period
94.99 min
Inclination
34.9936°
Eccentricity
0.0009023
Mean motion
15.15983969 rev/d
Perigee alt
511.8 km
Apogee alt
524.2 km
Semi-major
6,896.1 km
B*
2.8451e-4
RAAN
295.4787°
Arg perigee
112.0781°
Mean anomaly
248.0890°
Rev number
15,196

§ Raw data

YAOGAN-39 01C1 57731U 23130E   26145.14005402  .00005562  00000+0  28451-3 0  99962 57731  34.9936 295.4787 0009023 112.0781 248.0890 15.15983969151964

JSON: /api/v1/satellites/57731 · /tle

For live sub-satellite position, see the globe view (requires WebGL).

§ Visibility from observer

Set your observer location to see the next 7 days of passes ≥ 10°. The values pass through the URL so the page stays shareable.

No JS? Fill the form by hand. The geolocation button needs JavaScript.